Theta_e
327 324 321 317 304 302 297 299 300 302 302 303 305 303 301 302 301 298 316 325 328 334 342 347 351 352 352 352 351 351 351 350 349 349 348 349 348 347 347 348 350 348 346 345 343 341 340 336 333
320 319 317 311 299 294 294 298 301 302 303 303 304 303 302 301 308 313 317 325 327 332 342 345 349 351 352 351 351 351 351 351 350 349 348 348 347 346 347 348 347 345 343 341 339 337 335 331 330
320 318 309 303 298 294 294 300 301 303 306 303 302 304 301 303 309 312 321 327 327 329 342 345 347 352 352 351 351 350 350 351 351 349 347 347 345 343 342 342 342 341 340 337 335 333 330 329 325
317 313 308 297 296 298 298 300 302 303 303 304 303 301 303 307 309 316 323 328 325 328 340 343 348 351 351 351 351 350 349 349 350 349 347 346 345 338 338 338 337 339 337 334 331 330 328 324 322
314 309 299 296 297 299 299 303 303 301 301 301 302 301 302 307 314 316 322 326 324 326 334 344 346 349 350 351 351 351 349 349 350 350 348 346 342 338 334 334 335 335 333 331 329 328 324 322 319
306 304 296 294 296 300 302 304 302 301 301 301 298 299 301 309 309 312 318 322 326 326 332 343 341 343 347 348 350 350 349 349 350 350 349 346 342 340 335 333 334 334 332 328 328 324 322 320 317
304 302 296 295 296 297 301 302 299 300 300 301 302 296 301 305 310 311 314 319 324 327 330 334 340 340 338 342 344 346 348 348 349 349 345 343 341 339 335 334 333 332 329 327 326 322 320 319 316
306 302 295 294 295 296 301 301 301 300 300 303 302 297 300 305 310 310 314 317 321 325 329 330 336 338 340 339 336 339 342 344 345 342 338 335 335 334 332 330 333 330 327 326 323 321 319 317 313
309 297 294 297 296 297 302 298 301 303 300 302 304 302 305 310 311 310 313 315 318 322 327 329 330 334 337 338 337 333 336 337 336 334 330 328 328 327 326 325 329 328 327 325 322 321 318 315 310
302 297 298 301 300 299 301 300 300 299 299 300 301 305 307 307 306 307 308 310 314 318 322 327 329 330 333 336 334 336 336 337 336 335 331 329 327 325 325 320 324 327 326 325 322 319 316 311 300
303 297 302 302 304 303 301 300 301 298 297 301 300 303 305 304 303 305 306 307 309 317 321 324 327 328 330 331 329 334 335 332 334 334 332 329 327 322 317 314 316 316 317 313 314 310 304 301 298
299 303 303 304 304 302 300 302 300 300 301 305 304 305 304 303 303 304 304 306 306 309 315 321 325 326 327 329 328 327 329 328 329 330 331 328 325 318 314 313 312 313 310 309 307 303 300 299 298
300 302 304 304 302 301 303 300 299 300 303 305 305 305 303 303 304 305 306 307 306 307 309 316 322 323 325 326 326 326 326 328 329 328 330 327 325 315 313 311 311 313 310 307 305 300 299 298 297
301 301 301 301 301 301 299 299 298 300 303 302 303 302 302 302 303 302 304 306 306 308 308 311 318 322 322 324 325 325 325 325 327 330 329 326 322 314 311 309 310 311 309 306 302 298 297 296 296
301 295 298 300 300 299 300 295 296 301 300 300 300 300 301 302 303 302 303 304 305 307 308 310 312 319 319 320 322 323 323 324 324 324 324 323 319 314 311 308 309 309 306 303 299 297 297 295 296
296 295 290 298 298 298 296 290 298 301 299 300 301 299 301 302 303 303 304 304 305 305 305 307 310 312 317 318 319 322 322 321 321 322 321 321 318 314 309 306 307 307 303 299 296 295 294 293 293
293 288 291 295 299 297 294 291 298 301 299 299 300 299 300 300 300 301 301 301 301 301 302 304 306 308 311 316 317 318 320 319 319 320 320 318 317 314 308 305 305 304 300 296 296 294 293 292 291
290 290 292 291 296 296 293 292 297 299 299 299 299 300 299 298 298 299 299 299 299 299 300 301 303 304 308 311 313 314 316 317 317 317 317 318 315 313 307 303 303 301 297 295 294 293 293 292 292
294 292 291 294 298 294 293 293 295 299 299 299 298 297 297 297 298 298 298 297 297 297 298 298 299 301 303 306 307 309 310 312 313 314 315 315 313 311 306 302 301 298 297 295 294 293 292 291 290
293 290 290 294 297 293 292 292 296 299 299 300 297 296 296 296 296 297 296 295 295 295 295 296 298 298 300 302 306 307 307 308 310 312 312 313 313 310 307 302 299 297 294 294 293 293 291 291 291
292 290 290 290 294 292 291 289 293 299 298 298 297 296 296 295 294 294 294 294 294 294 294 295 295 297 298 300 303 303 304 301 301 302 306 308 311 309 307 303 299 296 294 294 293 293 292 288 289
289 295 293 291 288 284 292 282 290 295 293 295 294 293 293 293 294 294 293 293 293 293 294 294 295 295 296 297 297 297 298 297 298 300 300 302 306 306 306 303 300 296 295 293 294 294 293 290 289
292 293 290 289 287 286 287 284 288 294 290 292 292 293 292 292 293 292 292 292 293 292 292 293 294 294 294 294 294 294 294 295 296 296 296 296 300 302 302 301 299 297 295 293 293 292 292 292 289
293 290 290 289 287 280 287 287 286 288 290 290 292 292 292 292 292 292 293 292 291 291 290 290 291 292 293 293 293 291 290 291 291 292 292 294 295 297 299 299 297 297 295 293 292 291 291 291 290
290 287 281 279 278 279 289 285 287 291 293 293 291 290 291 291 290 290 289 289 289 288 289 289 288 288 290 291 291 291 290 290 289 290 290 290 291 293 294 295 295 294 294 294 293 291 290 290 291
290 290 283 276 275 279 285 281 288 292 293 292 291 290 289 289 289 289 289 288 288 288 288 287 287 286 287 288 289 289 289 290 290 290 289 289 289 290 291 292 293 294 294 293 292 290 289 289 289
288 286 292 283 281 278 283 288 294 292 290 289 288 288 287 287 288 288 289 288 287 287 287 286 285 285 285 286 286 286 286 286 287 288 289 289 289 290 289 289 289 290 291 291 290 288 287 288 288
291 292 284 284 277 274 280 281 283 288 288 287 286 286 286 286 286 286 286 287 286 286 286 285 285 284 284 285 285 286 285 285 285 285 284 286 288 288 288 288 288 289 288 289 288 287 287 287 286
287 285 287 287 283 276 275 278 288 288 288 285 285 286 285 285 283 286 285 284 285 286 285 284 284 284 283 284 285 285 284 285 284 283 283 284 284 285 286 287 286 286 287 287 287 286 287 286 286
289 288 289 282 280 282 282 281 288 286 285 286 285 286 287 286 284 286 287 285 285 284 284 283 284 284 284 283 283 284 284 283 282 282 282 282 283 284 284 285 286 285 285 286 285 285 286 285 284
Wind_Speed
7 9 4 3 1 3 1 5 3 9 7 3 4 4 5 6 4 0 3 6 2 10 13 12 14 16 15 14 15 13 12 12 12 11 10 10 10 8 7 6 10 12 10 10 8 8 8 7 6
7 8 2 4 2 1 4 3 9 6 3 3 2 4 3 1 5 7 6 4 4 9 14 13 12 15 14 14 14 14 13 13 13 13 11 10 10 9 7 8 11 11 10 8 8 9 8 7 6
7 6 2 2 3 5 3 4 6 3 6 1 4 1 2 4 6 4 4 7 5 7 13 12 15 16 16 14 14 14 13 13 14 15 13 12 10 9 9 6 10 8 8 8 7 8 8 7 7
4 2 3 1 4 4 4 6 7 6 5 4 4 7 4 5 2 6 5 8 6 8 9 13 17 15 16 17 16 16 15 13 13 13 14 13 13 6 6 5 6 8 7 7 6 8 8 7 7
3 3 3 4 4 3 4 6 5 4 3 3 4 4 7 3 10 8 7 7 6 7 5 13 18 15 15 15 16 16 15 15 14 14 15 15 11 9 7 6 6 6 5 6 6 8 7 7 8
3 1 3 3 7 5 6 6 3 3 0 4 2 4 2 7 7 7 6 7 7 8 7 9 11 12 13 15 16 15 14 14 14 14 15 13 14 10 9 7 7 8 7 6 7 7 8 8 7
2 1 5 5 7 2 5 3 3 6 8 5 3 4 2 5 6 5 5 5 7 6 8 7 8 8 9 10 12 14 14 13 13 14 13 12 12 10 9 8 9 9 8 8 8 7 7 8 7
3 1 5 4 2 5 5 1 1 4 6 2 2 4 1 5 6 2 2 3 6 5 8 7 8 9 8 6 10 11 12 12 11 11 11 10 10 11 9 8 8 10 10 9 9 8 7 6 6
2 3 4 6 1 2 7 3 3 4 5 6 6 7 8 10 8 5 4 4 4 4 7 8 8 10 10 8 8 9 10 10 10 10 10 7 4 6 8 7 9 10 10 10 10 10 9 8 6
2 3 5 6 6 6 10 7 7 8 8 10 9 9 11 8 7 9 8 8 9 9 8 8 8 8 9 9 8 10 7 7 7 7 7 5 6 6 7 7 9 9 10 10 11 10 9 9 4
4 4 6 9 9 7 6 8 8 7 8 10 11 13 11 7 4 8 9 9 9 12 8 9 8 8 8 7 5 6 6 5 6 7 7 7 5 4 4 4 4 4 7 4 6 6 3 5 3
5 7 7 8 6 2 4 9 9 10 12 11 13 11 8 10 7 7 8 8 7 9 10 10 12 8 8 5 5 5 6 5 5 7 7 5 5 5 5 4 5 5 4 6 5 3 4 2 3
7 8 10 9 6 7 7 9 9 17 15 14 14 10 9 9 9 8 10 8 6 7 6 9 11 10 8 8 5 5 5 6 8 8 10 6 7 5 5 5 5 5 5 5 5 5 4 4 3
6 7 9 8 14 10 8 10 5 11 11 11 11 9 9 10 8 5 6 8 8 8 9 6 8 10 8 8 8 6 5 6 6 8 8 8 6 6 5 5 5 5 6 4 5 5 5 5 5
4 5 9 15 9 5 6 10 10 15 5 10 9 10 9 10 10 9 9 6 5 6 7 7 5 7 8 6 5 4 4 4 4 4 7 9 8 7 7 5 5 5 5 7 5 4 5 4 4
5 6 4 6 6 4 7 9 9 10 10 18 19 9 10 9 14 15 17 16 17 14 11 2 5 6 8 7 5 4 4 3 3 3 4 7 7 8 7 5 5 5 5 5 5 4 4 4 4
8 5 8 9 6 6 6 6 11 11 10 17 13 9 8 11 20 19 20 18 16 15 16 15 10 3 5 4 4 4 5 3 4 3 3 6 6 6 6 5 6 7 5 5 5 3 4 3 3
6 8 8 9 7 4 6 11 10 10 10 14 11 10 8 18 17 17 18 16 16 15 15 14 12 10 4 3 3 2 1 1 3 3 3 6 6 8 6 5 6 6 6 5 5 6 3 4 5
8 10 11 8 9 9 7 7 9 13 13 13 9 10 16 16 14 15 15 13 13 14 14 14 13 11 6 4 3 2 1 1 1 1 3 5 6 6 5 5 6 5 8 8 7 4 7 3 5
7 10 9 7 9 3 8 10 11 18 16 13 7 13 13 13 13 13 13 14 14 14 15 16 15 14 10 5 3 3 3 2 1 1 1 1 3 6 6 5 5 6 5 7 8 7 4 2 6
7 8 9 10 8 4 7 9 9 11 4 14 17 14 13 11 9 10 13 13 12 14 14 15 15 13 12 12 5 5 4 4 4 4 3 1 0 2 6 6 5 7 6 8 7 8 10 5 5
10 5 4 4 4 4 7 9 4 10 8 15 13 12 9 9 9 11 11 12 12 10 10 12 13 14 13 12 8 8 4 3 2 2 1 3 1 4 3 6 6 6 4 6 8 8 11 6 9
1 4 3 3 6 6 5 5 7 9 11 8 9 10 9 8 9 10 9 11 10 9 9 10 12 15 14 13 11 7 7 4 3 3 5 5 2 3 4 3 5 5 5 5 7 6 8 7 7
3 4 7 6 2 4 11 7 2 3 7 6 8 8 9 8 8 8 8 7 8 8 8 11 13 13 13 13 13 10 8 8 7 6 4 4 2 2 4 4 4 5 5 6 5 7 9 8 5
2 2 4 3 2 7 4 5 4 3 4 13 13 10 8 9 8 7 7 7 8 9 9 9 10 11 9 9 9 10 9 8 7 7 5 6 5 4 4 3 5 4 5 6 6 6 7 8 9
4 2 4 6 3 7 5 7 7 7 12 13 12 10 9 8 6 7 8 7 7 7 8 7 9 9 9 9 9 8 8 5 6 7 5 4 4 5 7 6 5 6 6 6 6 4 5 6 7
2 2 2 2 1 0 6 8 11 12 11 10 10 9 8 6 6 7 6 5 5 6 7 7 6 6 6 6 6 7 8 10 9 11 9 9 7 6 7 7 7 6 7 6 6 5 6 6 6
4 1 1 2 4 6 5 7 9 6 7 9 9 8 6 5 5 4 5 5 5 5 4 5 7 7 6 6 5 5 6 7 8 7 8 9 10 10 8 7 6 7 6 7 6 5 5 7 5
1 2 3 3 4 3 7 8 8 7 7 8 7 6 6 5 3 2 3 3 5 4 3 4 5 5 5 5 5 6 6 7 6 6 5 6 6 9 9 8 7 6 7 6 6 7 7 7 7
3 5 8 6 12 6 8 9 8 9 8 8 7 5 5 5 3 1 0 4 4 2 3 3 4 4 4 4 5 6 5 5 5 6 6 6 6 6 8 8 7 7 6 6 7 7 7 8 8
Wind_Direction
285 240 278 317 270 212 322 77 3 27 45 42 1 7 297 268 279 343 156 150 220 131 143 160 165 163 166 162 158 159 161 167 166 163 162 157 139 127 145 159 122 116 106 96 100 95 89 88 76
309 305 246 271 251 294 63 43 65 57 35 340 216 264 253 353 73 117 126 139 222 140 145 165 165 166 166 160 163 162 168 175 167 160 160 152 144 137 128 136 113 109 107 103 107 106 102 84 68
271 272 276 307 283 24 21 80 58 48 87 353 313 164 294 346 74 96 97 140 203 157 147 168 165 167 166 165 167 166 177 179 176 169 173 168 159 145 131 113 107 107 118 114 111 109 99 91 71
300 228 263 272 349 28 5 3 32 325 104 101 355 298 149 74 70 80 122 136 194 159 152 156 168 175 169 170 174 175 180 185 184 178 172 172 165 172 178 191 177 137 120 114 124 111 101 90 79
232 264 270 222 244 112 358 14 43 329 303 132 132 294 313 80 111 125 140 149 182 156 159 153 167 179 181 180 180 182 186 190 195 182 182 178 150 176 179 193 201 193 171 136 129 110 105 94 80
282 188 280 279 3 79 96 47 3 251 257 133 196 286 254 125 132 148 138 171 187 160 162 151 170 175 190 184 188 191 191 194 200 192 183 177 159 167 192 199 194 180 165 154 133 130 120 108 101
258 307 268 341 299 319 101 82 299 1 316 2 80 310 277 76 84 109 164 187 182 170 157 154 166 192 198 190 187 190 195 201 206 190 175 168 162 162 185 195 188 174 170 162 148 144 136 121 110
310 303 278 264 282 308 97 122 88 305 300 141 61 253 294 173 134 150 188 225 182 195 162 186 165 178 190 193 196 198 196 197 199 174 166 166 159 155 179 181 187 181 178 164 158 148 138 129 119
290 300 274 284 355 357 130 187 142 250 260 274 212 217 230 163 152 165 195 213 240 207 186 186 192 180 188 192 192 198 189 179 174 169 168 159 156 155 151 172 182 191 179 169 162 159 152 140 131
241 239 270 335 349 335 331 341 334 323 294 295 295 260 227 172 173 183 207 216 203 207 214 192 199 195 185 196 183 185 189 185 177 178 170 169 163 154 167 174 184 186 161 169 169 163 149 159 170
218 228 306 322 347 41 329 311 291 284 285 261 280 311 317 312 299 205 217 217 223 205 193 191 197 198 195 196 179 179 190 191 189 180 175 174 164 172 162 144 159 152 149 152 160 140 169 215 164
256 270 273 286 308 357 285 311 300 278 255 260 275 275 287 294 273 271 275 232 217 223 198 188 191 193 196 192 190 172 177 177 193 201 201 172 179 172 162 147 164 154 158 161 146 159 213 157 97
271 249 274 296 308 282 288 274 270 280 275 269 267 278 281 272 261 239 232 247 249 240 237 196 183 190 192 194 192 187 182 186 183 190 201 175 186 165 152 156 163 166 162 163 160 164 162 159 154
317 345 292 274 265 258 256 277 312 277 284 271 267 282 297 284 289 280 237 225 225 222 216 228 190 189 185 199 200 196 189 186 180 190 191 175 163 149 153 171 174 175 162 162 151 159 165 173 157
355 311 289 271 259 254 140 295 222 256 295 313 300 296 300 303 304 306 343 347 324 263 202 199 215 180 188 202 209 211 199 203 185 182 176 163 153 156 159 166 174 168 154 147 144 156 160 158 158
260 248 286 267 177 151 119 268 296 332 343 301 293 298 299 304 45 42 31 22 16 16 360 294 187 175 179 193 192 191 207 196 204 186 167 161 161 159 161 161 173 165 149 145 147 158 165 165 161
229 252 255 282 229 125 167 247 279 282 269 275 294 296 282 62 45 32 27 24 21 14 11 6 1 216 189 172 184 195 190 188 183 173 167 163 169 170 157 165 171 160 151 149 153 156 154 160 164
255 295 308 311 314 313 209 242 264 295 291 279 295 285 64 66 53 40 32 21 17 12 14 12 1 4 52 69 38 11 130 175 158 180 176 166 168 177 161 169 173 157 149 157 165 166 172 156 162
287 277 277 282 300 294 294 295 288 275 290 292 280 66 80 74 62 47 36 26 24 17 22 17 12 359 30 29 67 53 351 352 54 97 184 180 166 180 179 166 170 161 170 177 175 160 167 166 146
305 301 288 276 283 10 292 295 291 279 263 268 90 69 66 60 52 49 43 35 29 23 24 21 24 22 13 20 25 53 33 27 32 152 132 313 168 167 173 176 178 169 158 173 176 164 153 157 171
257 251 276 274 304 296 279 267 267 271 306 92 82 79 68 62 56 46 40 35 29 27 27 25 19 18 23 7 17 19 42 19 12 13 11 279 173 160 179 192 187 180 174 191 190 179 173 161 210
269 297 311 342 345 227 55 298 244 270 97 83 77 74 69 63 61 51 42 38 33 25 26 32 30 24 15 15 20 27 32 15 313 209 31 2 257 256 216 198 207 191 196 197 198 192 191 148 184
221 12 328 276 260 311 238 256 252 238 112 97 91 90 87 80 70 63 45 41 29 23 31 33 33 33 23 21 26 20 18 353 333 10 49 340 257 202 270 249 225 220 199 211 196 202 205 197 173
48 276 251 229 175 277 218 199 309 85 140 135 109 98 96 83 72 66 65 54 41 17 24 33 31 30 26 24 19 19 13 356 351 3 23 333 346 262 222 252 236 236 226 218 217 209 208 210 207
142 254 322 310 155 225 54 344 232 74 85 149 130 108 85 75 68 65 54 41 37 25 25 31 31 28 26 29 26 17 5 1 8 9 358 4 359 349 310 235 247 235 240 238 224 217 215 211 213
230 201 179 258 261 302 329 246 250 119 84 86 92 92 83 75 67 62 54 44 46 41 36 32 34 22 14 22 26 22 6 7 19 9 1 3 356 337 341 346 306 260 241 245 241 226 216 215 229
64 206 60 18 30 209 252 276 292 126 101 104 100 83 76 60 58 67 82 85 64 49 48 54 52 36 27 31 22 19 7 16 23 19 8 353 351 350 339 333 324 314 273 258 248 230 238 227 222
182 97 271 72 243 230 263 309 269 29 141 105 107 110 105 88 59 59 33 68 66 52 57 69 65 39 14 22 40 25 14 6 15 15 11 358 344 345 346 337 332 324 310 282 272 257 240 234 232
308 272 209 235 210 232 266 261 48 93 108 114 104 104 91 60 11 26 93 71 91 86 44 33 64 75 35 18 1 22 13 13 357 359 360 354 338 340 337 338 332 327 313 298 287 265 251 246 241
259 253 254 238 263 237 267 247 102 104 117 130 143 174 183 147 152 230 24 71 37 48 59 44 28 54 52 36 5 356 8 359 342 346 339 337 326 326 324 328 328 324 318 309 289 280 261 249 249